Plymouth, NH

8:09 AM EST on January 23, 2018 (GMT -0500)
Plymouth

Weather History for K1P1 - October, 2012

Change the Weather History Date:

Wednesday, October 10, 2012

  Actual Average (KLCI) Record (KLCI)
Temperature  
Mean Temperature 49 °F -  
Max Temperature 53 °F 60 °F 78 °F (2011)
Min Temperature 45 °F 40 °F 29 °F (1989)
Degree Days  
Heating Degree Days 16    
Moisture  
Dew Point 46 °F    
Average Humidity 92    
Maximum Humidity 97    
Minimum Humidity 72    
Precipitation  
Precipitation 0.20 in - - ()
Sea Level Pressure  
Sea Level Pressure 29.93 in    
Wind  
Wind Speed 1 mph (ENE)    
Max Wind Speed 13 mph    
Max Gust Speed 24 mph    
Visibility 7 miles    
Events Rain    
Averages and records for this station are not official NWS values.
T = Trace of Precipitation, MM = Missing Value Source: NWS Daily Summary

Daily Weather History Graph

Daily Weather History Graph

Search for Another Location

Airport or City:

Trip Planner

Search our weather history database for the weather conditions in past years. The results will help you decide how hot, cold, wet, or windy it might be!

Date:

Astronomy

Oct. 10, 2012 Rise Set
Actual Time 6:55 AM EDT 6:11 PM EDT
Civil Twilight 6:26 AM EDT 6:39 PM EDT
Nautical Twilight 5:53 AM EDT 7:13 PM EDT
Astronomical Twilight 5:20 AM EDT 7:46 PM EDT
Moon 1:19 AM EDT (10/10) 3:20 PM EDT (10/10)
Length of Visible Light 12h 12m
Length of Day
11h 15m
Waning Crescent, 27% of the Moon is Illuminated
Oct 10
Waning Crescent
Oct 15
New
Oct 21
First Quarter
Oct 29
Full
Nov 6
Last Quarter

Hourly Weather History & Observations

Time (EDT) Temp. Windchill Dew Point Humidity Pressure Visibility Wind Dir Wind Speed Gust Speed Precip Events Conditions
12:15 AM 47.5 °F - 44.1 °F 88% 30.16 in 10.0 mi Calm Calm - N/A   Overcast
12:35 AM 47.5 °F - 43.7 °F 87% 30.15 in 10.0 mi Calm Calm - N/A   Overcast
12:55 AM 46.9 °F - 43.9 °F 89% 30.15 in 10.0 mi Calm Calm - N/A   Overcast
1:15 AM 46.6 °F - 43.9 °F 90% 30.15 in 10.0 mi Calm Calm - N/A   Overcast
1:35 AM 46.6 °F - 44.1 °F 91% 30.14 in 10.0 mi Calm Calm - N/A   Overcast
1:55 AM 46.4 °F - 43.9 °F 91% 30.14 in 10.0 mi Calm Calm - N/A   Overcast
2:15 AM 46.4 °F - 44.1 °F 92% 30.14 in 10.0 mi Calm Calm - N/A   Overcast
2:35 AM 46.0 °F - 44.1 °F 93% 30.13 in 10.0 mi Calm Calm - N/A   Overcast
2:55 AM 46.4 °F - 43.5 °F 90% 30.12 in 10.0 mi Calm Calm - N/A   Overcast
3:15 AM 46.2 °F - 43.7 °F 91% 30.11 in 10.0 mi Calm Calm - N/A   Overcast
3:35 AM 45.7 °F - 43.9 °F 93% 30.10 in 10.0 mi Calm Calm - N/A   Overcast
4:15 AM 45.5 °F - 43.7 °F 93% 30.10 in 10.0 mi Calm Calm - N/A   Overcast
4:35 AM 45.1 °F - 43.7 °F 95% 30.09 in 10.0 mi Calm Calm - N/A   Overcast
4:55 AM 45.5 °F - 43.9 °F 94% 30.09 in 10.0 mi Calm Calm - N/A   Overcast
5:15 AM 45.5 °F - 43.9 °F 94% 30.09 in 10.0 mi Calm Calm - N/A   Overcast
5:35 AM 45.5 °F - 43.9 °F 94% 30.09 in 10.0 mi Calm Calm - N/A   Overcast
5:55 AM 45.5 °F - 44.1 °F 95% 30.09 in 10.0 mi Calm Calm - N/A   Overcast
6:15 AM 45.7 °F - 43.9 °F 93% 30.09 in 10.0 mi Calm Calm - N/A   Overcast
6:35 AM 45.5 °F 44.2 °F 43.7 °F 93% 30.08 in 10.0 mi East 3.5 mph - N/A   Overcast
6:55 AM 45.5 °F 44.2 °F 43.7 °F 93% 30.08 in 10.0 mi East 3.5 mph - N/A   Overcast
7:15 AM 45.9 °F - 43.5 °F 92% 30.07 in 10.0 mi Calm Calm - N/A   Overcast
7:35 AM 46.2 °F - 42.8 °F 88% 30.07 in 10.0 mi Calm Calm - N/A   Overcast
7:55 AM 46.4 °F - 42.8 °F 87% 30.07 in 10.0 mi Calm Calm - N/A   Overcast
8:15 AM 46.6 °F - 43.0 °F 87% 30.05 in 10.0 mi Calm Calm - N/A   Overcast
8:35 AM 46.9 °F - 42.8 °F 86% 30.05 in 10.0 mi Calm Calm - N/A   Overcast
8:55 AM 47.3 °F - 42.8 °F 84% 30.05 in 10.0 mi Calm Calm - N/A   Overcast
9:15 AM 47.5 °F - 42.4 °F 83% 30.04 in 5.0 mi Calm Calm - N/A   Light Drizzle
9:35 AM 46.8 °F - 43.7 °F 89% 30.04 in 4.0 mi Calm Calm - N/A   Overcast
10:15 AM 46.4 °F - 44.8 °F 94% 30.02 in 2.5 mi Calm Calm - N/A   Light Drizzle
10:35 AM 46.8 °F - 45.0 °F 93% 30.01 in 3.0 mi Calm Calm - N/A   Overcast
10:55 AM 47.3 °F - 45.5 °F 93% 30.00 in 3.0 mi Calm Calm - N/A   Overcast
11:15 AM 47.5 °F - 46.0 °F 95% 29.99 in 1.8 mi Calm Calm - N/A   Overcast
11:35 AM 48.2 °F - 46.8 °F 95% 29.98 in 2.5 mi East 3.5 mph - N/A   Overcast
11:55 AM 48.4 °F - 46.9 °F 95% 29.96 in 1.5 mi East 3.5 mph - N/A   Overcast
12:15 PM 48.6 °F - 47.3 °F 95% 29.95 in 1.5 mi East 6.9 mph - N/A   Overcast
12:35 PM 49.1 °F - 47.5 °F 94% 29.94 in 5.0 mi East 4.6 mph - N/A   Overcast
12:55 PM 50.0 °F - 48.2 °F 94% 29.92 in 5.0 mi East 3.5 mph - N/A   Overcast
1:15 PM 50.0 °F - 48.2 °F 94% 29.90 in 7.0 mi Calm Calm - N/A   Overcast
1:35 PM 50.4 °F - 48.7 °F 94% 29.88 in 7.0 mi East 4.6 mph - N/A Rain Light Rain
1:55 PM 50.9 °F - 49.1 °F 94% 29.86 in 4.0 mi East 6.9 mph - 0.01 in   Drizzle
2:15 PM 50.7 °F - 48.9 °F 94% 29.84 in 3.0 mi East 8.1 mph - N/A   Overcast
2:35 PM 50.9 °F - 49.1 °F 94% 29.83 in 2.5 mi East 9.2 mph - N/A Rain Light Rain
2:55 PM 51.1 °F - 49.5 °F 94% 29.82 in 2.5 mi ENE 5.8 mph - 0.01 in   Light Drizzle
3:15 PM 50.9 °F - 49.5 °F 95% 29.81 in 2.5 mi East 6.9 mph - 0.01 in   Light Drizzle
3:35 PM 51.1 °F - 49.5 °F 94% 29.79 in 4.0 mi ESE 5.8 mph - 0.02 in Rain Light Rain
3:55 PM 51.3 °F - 49.6 °F 94% 29.78 in 4.0 mi East 3.5 mph - 0.02 in   Drizzle
4:15 PM 51.3 °F - 49.5 °F 94% 29.77 in 2.5 mi ESE 4.6 mph - 0.06 in Rain Rain
4:35 PM 51.1 °F - 49.5 °F 94% 29.77 in 3.0 mi SE 3.5 mph - 0.09 in Rain Rain
4:55 PM 51.1 °F - 49.5 °F 94% 29.76 in 4.0 mi Calm Calm - 0.10 in   Drizzle
5:15 PM 51.1 °F - 50.0 °F 96% 29.75 in 3.0 mi Calm Calm - 0.01 in   Drizzle
5:35 PM 50.9 °F - 49.6 °F 95% 29.75 in 4.0 mi ENE 3.5 mph - 0.02 in   Drizzle
5:55 PM 50.9 °F - 49.6 °F 95% 29.74 in 5.0 mi Calm Calm - 0.03 in Rain Rain
6:15 PM 50.9 °F - 49.8 °F 96% 29.73 in 4.0 mi Calm Calm - N/A Rain Light Rain
6:35 PM 50.9 °F - 49.6 °F 95% 29.73 in 10.0 mi Calm Calm - 0.01 in   Overcast
6:55 PM 50.9 °F - 49.6 °F 95% 29.72 in 10.0 mi Calm Calm - 0.01 in   Overcast
7:15 PM 50.9 °F - 49.5 °F 95% 29.72 in 10.0 mi Calm Calm - N/A   Overcast
7:35 PM 50.9 °F - 49.6 °F 95% 29.71 in 10.0 mi Calm Calm - N/A   Overcast
7:55 PM 50.5 °F - 49.6 °F 97% 29.72 in 5.0 mi Calm Calm - N/A Rain Rain
8:15 PM 50.5 °F - 49.6 °F 97% 29.71 in 7.0 mi Calm Calm - 0.02 in Rain Light Rain
8:35 PM 50.4 °F - 49.5 °F 97% 29.71 in 10.0 mi Calm Calm - 0.02 in   Overcast
8:55 PM 50.2 °F - 49.3 °F 97% 29.71 in 10.0 mi NNW 4.6 mph - 0.02 in   Overcast
9:15 PM 51.1 °F - 49.5 °F 94% 29.71 in 10.0 mi NW 5.8 mph - N/A   Overcast
9:35 PM 51.3 °F - 49.3 °F 93% 29.71 in 10.0 mi NNW 4.6 mph - N/A   Overcast
9:55 PM 51.6 °F - 49.3 °F 92% 29.71 in 10.0 mi WNW 3.5 mph - N/A   Overcast
10:15 PM 53.2 °F - 48.7 °F 85% 29.72 in 10.0 mi WNW 10.4 mph 16.1 mph N/A   Overcast
10:35 PM 51.3 °F - 45.7 °F 81% 29.74 in 10.0 mi West 12.7 mph 24.2 mph N/A   Overcast
11:15 PM 49.3 °F - 42.3 °F 77% 29.75 in 10.0 mi West 8.1 mph - N/A   Mostly Cloudy
11:35 PM 49.1 °F - 40.3 °F 72% 29.75 in 10.0 mi WNW 10.4 mph 17.3 mph N/A   Scattered Clouds
11:55 PM 48.4 °F - 39.6 °F 72% 29.75 in 10.0 mi WNW 11.5 mph - N/A   Clear